Location: Alsip
(41.6689°N, 87.7387°W)
Time: 10:18:46
(UTC+00:00)

GEOS 3 Rocket - Pass Details

Date: 31 October 2020
Orbit: 770 x 850 km, 115.0° (Epoch: 25 November)

Event Time Altitude Azimuth Distance (km) Brightness Sun altitude
Exits shadow 00:37:37 34° 49° (NE) 1,362 4.4 -21.1°
Maximum altitude 00:37:54 34° 42° (NE) 1,357 4.4 -21.1°
Drops below altitude 10° 00:42:42 10° 340° (NNW) 2,475 6.4 -22.0°
Sets 00:45:13 0° 331° (NNW) 3,418 7.3 -22.5°
